GALAXY 32 (G-32)

Last updated on Sat May 17 2025 00:02:46 GMT+0000 (Coordinated Universal Time)

1 54244U 22153B 25136.46294712 -.00000160 00000+0 00000+0 0 9990 2 54244 0.0127 1.6198 0002742 34.6615 273.8113 1.00271617 9162
UTC large
Height (km)
Speed (km/s)
/
Latitude / Longitude
Inclination (degrees)
Orbital Period (minutes)
Azimuth
Elevation
Range (km)
Doppler Factor

Next 0 passes for location: London (51.5072 / 0.1276)

Sorry there are no passes over London.